{"data":{"norad_id":68132,"epoch":"2026-05-24T10:44:29.906304Z","epoch_age_seconds":122973,"freshness":"FRESH","line1":"1 68132U 26047D   26144.44756836 -.00000094  00000+0  64350-4 0  9994","line2":"2 68132  50.0024 141.3242 0000269   9.5925 350.4952 13.29330383  9908","mean_motion":13.29330383,"eccentricity":2.69e-5,"inclination_deg":50.0024,"raan_deg":141.3242,"arg_perigee_deg":9.5925,"mean_anomaly_deg":350.4952,"bstar":6.435e-5,"rev_number":990,"period_min":108.32521534265,"perigee_km":1149.0875379903,"apogee_km":1149.4925135643,"semimajor_km":7527.4270257773,"source":"CELESTRAK","updated_at":"2026-05-25T13:38:07.576252Z"}}